Terminal Aerodrome Forecast
Issued by NWS North Platte, NE

Home | Current Version | Previous Version | Text Only | Print | Product List | Glossary Off
Versions: 1 2 3 4 5 6 7 8 9 10 11 12 13 14

000
FTUS43 KLBF 030500
TAFVTN
TAF
KVTN 030520Z 0306/0406 VRB06KT P6SM SKC
     FM031700 VRB05KT P6SM SCT100
     FM040100 13007KT P6SM SKC=

USA.gov is the U.S. government's official web portal to all federal, state and local government web resources and services.